This is the latest recevied weather packets stored in our database for station/object VE3GSI. If no packets are shown the sender has not sent any weather packets the latest 10 day(s).
| Time | Temp. | Humidity | Pressure | Rain* | Wind** | Luminosity | Snow |
|---|---|---|---|---|---|---|---|
| 1778154366 | 5° C | 72% | 1010.5 hPa | 0 mm | - | - | - |
| 1778151966 | 2.78° C | 81% | 1010.3 hPa | 0 mm | - | - | - |
| 1778148965 | -1.67° C | 93% | 1010 hPa | 0 mm | - | - | - |
| 1778142365 | 0° C | 82% | 1009.5 hPa | 0 mm | - | - | - |
| 1778139965 | 2.22° C | 76% | 1009.6 hPa | 0 mm | - | - | - |
| 1778135766 | 3.89° C | 71% | 1009.4 hPa | 0 mm | - | - | - |
| 1778129766 | 3.89° C | 71% | 1009.5 hPa | 0 mm | - | - | - |
| 1778120166 | 7.22° C | 65% | 1009.2 hPa | 0 mm | - | - | - |
| 1778117165 | 8.33° C | 83% | 1009.1 hPa | 0 mm | - | - | - |
| 1778115965 | 8.33° C | 83% | 1009 hPa | 0 mm | - | - | - |
| 1778114765 | 8.33° C | 84% | 1008.9 hPa | 0 mm | - | - | - |
| 1778109965 | 8.89° C | 85% | 1008.3 hPa | 0 mm | - | - | - |
| 1778105766 | 9.44° C | 80% | 1007.9 hPa | 0 mm | - | - | - |
| 1778104565 | 10.56° C | 76% | 1007.8 hPa | 0 mm | - | - | - |
| 1778100366 | 11.67° C | 71% | 1007.4 hPa | 0 mm | - | - | - |
| 1778096765 | 11.67° C | 69% | 1007.4 hPa | 0 mm | - | - | - |
| 1778092565 | 11.67° C | 68% | 1007.6 hPa | 0 mm | - | - | - |
| 1778088965 | 10° C | 81% | 1007.9 hPa | 0 mm | - | - | - |
| 1778085366 | 8.89° C | 81% | 1008.1 hPa | 0 mm | - | - | - |
| 1778079366 | 7.78° C | 84% | 1008.3 hPa | 0 mm | - | - | - |
| 1778076965 | 6.67° C | 90% | 1008.2 hPa | 0 mm | - | - | - |
| 1778070965 | 6.67° C | 95% | 1007.8 hPa | 0 mm | - | - | - |
| 1778067365 | 6.11° C | 96% | 1008 hPa | 0 mm | - | - | - |
| 1778064964 | 5.56° C | 96% | 1007.6 hPa | 0.25 mm | - | - | - |
| 1778063764 | 5.56° C | 95% | 1007.3 hPa | 0.51 mm | - | - | - |
* Rain latest hour (hover to see other rain measurements)
** Current wind speed in m/s (hover to see current wind gust speed)